period_start,C,m1,H,J0,J1,J2,J3,J4,J5,JA,JB,JC,JD,JJ,JK,JN,#
2013-09-01 00:00:44,0.08,0.84,0.00,23.67,28.17,30.43,5.95,29.79,1012.25,2046.99,3140.02,3096.35,3355.32,349.90,321.96,13.62,0000 0000 0000 0000 000000
2013-09-01 00:01:44,-0.03,0.84,0.00,23.68,28.17,30.40,5.93,29.75,1012.27,2046.99,3140.00,3096.34,3355.28,349.82,321.94,13.63,0000 0000 0000 0000 000000
2013-09-01 00:02:44,0.03,0.84,0.00,23.69,28.17,30.40,5.96,29.88,1012.26,2046.99,3140.00,3096.21,3355.15,350.58,321.76,13.63,0000 0000 0000 0000 000000
2013-09-01 00:03:44,0.04,0.84,0.00,23.68,28.17,30.40,6.00,29.71,1012.34,2046.99,3140.00,3096.12,3355.08,350.59,322.40,13.64,0000 0000 0000 0000 000000
2013-09-01 00:04:44,0.01,0.84,0.00,23.68,28.17,30.41,5.86,29.54,1012.43,2046.99,3139.98,3096.08,3355.05,349.58,321.51,13.64,0000 0000 0000 0000 000000
2013-09-01 00:05:45,0.01,0.84,0.00,23.67,28.17,30.43,5.91,29.75,1012.45,2046.99,3139.99,3096.07,3355.02,349.19,321.17,13.65,0000 0000 0000 0000 000000
2013-09-01 00:06:45,0.00,0.84,0.00,23.67,28.17,30.42,5.94,29.58,1012.55,2046.99,3139.96,3096.03,3355.00,350.47,322.38,13.66,0000 0000 0000 0000 000000
2013-09-01 00:07:45,0.01,0.84,0.00,23.67,28.17,30.41,5.85,29.83,1012.60,2046.99,3139.85,3096.01,3355.00,350.05,321.75,13.66,0000 0000 0000 0000 000000
2013-09-01 00:08:45,0.02,0.84,0.00,23.68,28.17,30.42,5.92,29.75,1012.64,2046.99,3139.52,3096.00,3355.00,351.51,323.35,13.67,0000 0000 0000 0000 000000
2013-09-01 00:09:46,0.05,0.84,0.00,23.69,28.17,30.44,5.92,29.67,1012.65,2046.99,3139.33,3096.00,3355.00,350.08,321.99,13.67,0000 0000 0000 0000 000000
2013-09-01 00:10:46,0.02,0.84,0.00,23.69,28.18,30.48,5.97,29.67,1012.67,2046.99,3139.14,3096.00,3354.99,349.59,321.62,13.68,0000 0000 0000 0000 000000
2013-09-01 00:11:46,0.02,0.84,0.00,23.70,28.17,30.49,5.97,30.13,1012.67,2046.99,3139.07,3096.00,3354.96,350.18,322.12,13.69,0000 0000 0000 0000 000000
2013-09-01 00:12:46,0.01,0.84,0.00,23.70,28.18,30.47,6.01,29.83,1012.71,2046.99,3139.02,3096.00,3354.97,350.41,322.50,13.69,0000 0000 0000 0000 000000
2013-09-01 00:13:47,0.00,0.84,0.00,23.70,28.18,30.44,5.86,29.88,1012.71,2046.99,3139.03,3096.00,3354.98,349.95,321.74,13.70,0000 0000 0000 0000 000000
2013-09-01 00:14:47,0.00,0.84,0.00,23.70,28.18,30.43,5.89,29.50,1012.71,2046.99,3139.03,3096.00,3354.91,350.00,321.75,13.70,0000 0000 0000 0000 000000
2013-09-01 00:15:47,0.02,0.84,0.00,23.69,28.18,30.45,5.91,29.83,1012.71,2046.99,3139.01,3095.98,3354.54,348.97,321.19,13.71,0000 0000 0000 0000 000000
2013-09-01 00:16:47,0.05,0.84,0.00,23.69,28.19,30.45,6.02,30.17,1012.71,2046.99,3139.00,3095.97,3354.42,349.65,321.48,13.71,0000 0000 0000 0000 000000
2013-09-01 00:17:47,0.01,0.84,0.00,23.69,28.18,30.44,5.90,29.63,1012.71,2046.99,3138.98,3095.97,3354.28,350.02,321.99,13.72,0000 0000 0000 0000 000000
2013-09-01 00:18:47,0.02,0.85,0.00,23.69,28.19,30.43,5.88,29.63,1012.71,2046.99,3138.97,3095.97,3354.16,349.15,321.58,13.73,0000 0000 0000 0000 000000
2013-09-01 00:19:48,0.01,0.85,0.00,23.70,28.19,30.41,6.09,29.96,1012.71,2046.99,3138.86,3095.97,3354.10,351.24,323.10,13.73,0000 0000 0000 0000 000000
2013-09-01 00:20:48,0.02,0.85,0.00,23.70,28.19,30.40,5.97,29.83,1012.71,2046.99,3138.79,3095.96,3354.06,350.55,322.47,13.74,0000 0000 0000 0000 000000
2013-09-01 00:21:48,0.01,0.85,0.00,23.71,28.19,30.42,5.82,29.79,1012.71,2046.99,3138.84,3095.89,3354.03,349.68,321.66,13.74,0000 0000 0000 0000 000000
2013-09-01 00:22:48,0.02,0.85,0.00,23.71,28.19,30.46,5.86,30.04,1012.71,2046.99,3138.62,3095.78,3354.01,349.90,321.91,13.75,0000 0000 0000 0000 000000
2013-09-01 00:23:49,0.07,0.85,0.00,23.70,28.20,30.46,5.93,29.58,1012.71,2046.99,3138.29,3095.61,3354.00,350.06,322.01,13.76,0000 0000 0000 0000 000000
2013-09-01 00:24:49,0.07,0.85,0.00,23.69,28.20,30.44,5.97,30.00,1012.71,2046.99,3138.12,3095.51,3354.00,350.19,322.48,13.76,0000 0000 0000 0000 000000
2013-09-01 00:25:49,0.04,0.85,0.00,23.70,28.20,30.47,6.03,29.79,1012.71,2046.98,3138.05,3095.35,3354.00,351.30,323.16,13.77,0000 0000 0000 0000 000000
2013-09-01 00:26:50,0.04,0.85,0.00,23.72,28.20,30.46,5.89,29.71,1012.71,2046.99,3138.03,3095.24,3353.99,350.19,322.11,13.77,0000 0000 0000 0000 000000
2013-09-01 00:27:50,0.04,0.85,0.00,23.72,28.20,30.43,5.77,29.67,1012.71,2046.99,3138.02,3095.17,3353.98,349.37,321.36,13.78,0000 0000 0000 0000 000000
2013-09-01 00:28:50,0.01,0.85,0.00,23.74,28.20,30.43,5.96,29.71,1012.71,2046.99,3138.00,3095.09,3353.98,350.00,321.75,13.78,0000 0000 0000 0000 000000
2013-09-01 00:29:50,0.01,0.85,0.00,23.74,28.20,30.45,5.97,29.83,1012.71,2046.99,3138.00,3095.07,3353.97,349.77,322.04,13.79,0000 0000 0000 0000 000000
2013-09-01 00:30:51,0.01,0.85,0.00,23.74,28.20,30.47,5.97,29.79,1012.71,2046.99,3138.00,3095.03,3353.86,349.38,321.29,13.80,0000 0000 0000 0000 000000
2013-09-01 00:31:51,0.03,0.85,0.00,23.74,28.20,30.47,6.03,29.83,1012.71,2046.99,3137.98,3095.03,3353.62,350.39,322.28,13.80,0000 0000 0000 0000 000000
2013-09-01 00:32:51,0.04,0.85,0.00,23.73,28.20,30.46,6.16,30.00,1012.71,2046.99,3137.98,3095.02,3353.39,350.94,322.79,13.81,0000 0000 0000 0000 000000
2013-09-01 00:33:51,0.02,0.85,0.00,23.74,28.20,30.45,5.95,29.67,1012.71,2046.99,3137.94,3095.00,3353.29,349.93,321.57,13.81,0000 0000 0000 0000 000000
2013-09-01 00:34:52,0.01,0.85,0.00,23.76,28.20,30.44,5.87,29.96,1012.71,2046.99,3137.90,3095.00,3353.16,349.22,321.18,13.82,0000 0000 0000 0000 000000
2013-09-01 00:35:52,0.02,0.85,0.00,23.78,28.20,30.45,5.98,29.63,1012.72,2046.99,3137.79,3095.00,3353.08,349.87,322.00,13.83,0000 0000 0000 0000 000000
2013-09-01 00:36:52,0.02,0.85,0.00,23.78,28.20,30.45,5.94,30.04,1012.72,2046.99,3137.56,3095.00,3353.05,349.91,321.98,13.83,0000 0000 0000 0000 000000
2013-09-01 00:37:52,0.05,0.85,0.00,23.79,28.20,30.47,6.02,29.92,1012.72,2046.99,3137.31,3095.00,3353.03,350.56,322.38,13.84,0000 0000 0000 0000 000000
2013-09-01 00:38:53,0.03,0.85,0.00,23.80,28.20,30.43,5.98,29.75,1012.72,2046.98,3137.13,3095.00,3353.00,351.10,322.87,13.84,0000 0000 0000 0000 000000
2013-09-01 00:39:53,0.01,0.85,0.00,23.80,28.20,30.43,6.02,29.79,1012.72,2046.99,3137.07,3095.00,3353.00,350.46,321.82,13.85,0000 0000 0000 0000 000000
2013-09-01 00:40:53,0.01,0.85,0.00,23.79,28.20,30.44,6.02,30.21,1012.72,2046.99,3137.04,3094.99,3353.00,349.96,321.91,13.86,0000 0000 0000 0000 000000
2013-09-01 00:41:53,0.01,0.85,0.00,23.80,28.20,30.44,5.84,30.21,1012.72,2046.99,3137.01,3094.88,3352.99,348.75,321.10,13.86,0000 0000 0000 0000 000000
2013-09-01 00:42:54,0.03,0.85,0.00,23.81,28.21,30.47,5.91,30.13,1012.73,2046.98,3137.00,3094.80,3352.98,350.09,321.93,13.87,0000 0000 0000 0000 000000
2013-09-01 00:43:54,0.00,0.85,0.00,23.82,28.21,30.46,6.01,29.88,1012.73,2046.97,3137.00,3094.64,3352.92,350.32,322.13,13.87,0000 0000 0000 0000 000000
2013-09-01 00:44:54,0.05,0.85,0.00,23.85,28.21,30.47,5.94,29.92,1012.73,2046.98,3136.99,3094.58,3352.89,349.67,321.37,13.88,0000 0000 0000 0000 000000
2013-09-01 00:45:55,0.02,0.85,0.00,23.86,28.22,30.46,5.94,30.00,1012.72,2046.99,3136.95,3094.42,3352.78,349.36,321.20,13.88,0000 0000 0000 0000 000000
2013-09-01 00:46:55,0.06,0.85,0.00,23.86,28.22,30.45,5.86,29.79,1012.74,2046.98,3136.94,3094.33,3352.71,349.58,321.39,13.89,0000 0000 0000 0000 000000
2013-09-01 00:47:55,0.03,0.85,0.00,23.89,28.22,30.43,6.04,29.71,1012.71,2046.99,3136.88,3094.23,3352.45,350.69,321.98,13.90,0000 0000 0000 0000 000000
2013-09-01 00:48:56,0.08,0.85,0.00,23.89,28.22,30.45,5.89,29.71,1012.73,2046.99,3136.57,3094.11,3352.25,350.17,321.92,13.90,0000 0000 0000 0000 000000
2013-09-01 00:49:56,0.10,0.85,0.00,23.89,28.22,30.48,5.92,29.88,1012.76,2046.98,3136.22,3094.05,3352.10,349.10,320.97,13.91,0000 0000 0000 0000 000000
2013-09-01 00:50:56,0.07,0.85,0.00,23.90,28.22,30.47,5.93,29.96,1012.74,2046.99,3136.09,3094.02,3352.04,349.61,321.37,13.91,0000 0000 0000 0000 000000
2013-09-01 00:51:56,0.03,0.85,0.00,23.91,28.22,30.45,6.05,29.83,1012.74,2046.99,3136.03,3094.00,3352.02,350.68,322.10,13.92,0000 0000 0000 0000 000000
2013-09-01 00:52:56,0.01,0.85,0.00,23.92,28.22,30.43,6.09,29.83,1012.78,2046.99,3136.02,3094.00,3352.00,350.84,321.94,13.93,0000 0000 0000 0000 000000
2013-09-01 00:53:57,0.00,0.85,0.00,23.93,28.22,30.43,6.02,29.79,1012.77,2046.99,3136.00,3094.01,3352.00,350.39,322.10,13.93,0000 0000 0000 0000 000000
2013-09-01 00:54:57,0.00,0.85,0.00,23.93,28.22,30.44,5.95,29.88,1012.77,2046.99,3136.00,3094.00,3352.00,349.98,321.96,13.94,0000 0000 0000 0000 000000
2013-09-01 00:55:57,0.00,0.85,0.00,23.95,28.22,30.44,5.95,29.83,1012.80,2046.99,3136.00,3094.00,3352.00,349.47,321.29,13.94,0000 0000 0000 0000 000000
2013-09-01 00:56:57,0.00,0.85,0.00,23.94,28.22,30.43,6.07,30.04,1012.76,2046.99,3136.00,3094.00,3352.00,350.89,322.52,13.95,0000 0000 0000 0000 000000
2013-09-01 00:57:57,0.00,0.85,0.00,23.95,28.23,30.44,5.98,29.71,1012.78,2046.98,3135.96,3094.00,3351.99,350.17,321.87,13.95,0000 0000 0000 0000 000000
2013-09-01 00:58:58,0.00,0.85,0.00,23.96,28.23,30.44,5.90,29.63,1012.83,2046.99,3135.74,3094.00,3351.91,349.90,321.62,13.96,0000 0000 0000 0000 000000
2013-09-01 00:59:58,0.06,0.85,0.00,23.97,28.24,30.43,6.10,29.88,1012.78,2046.99,3135.33,3093.94,3351.56,350.76,322.39,13.97,0000 0000 0000 0000 000000
2013-09-01 01:00:58,0.13,0.85,0.00,23.97,28.25,30.45,6.08,29.71,1012.86,2046.99,3135.11,3093.83,3351.25,351.21,322.83,13.97,0000 0000 0000 0000 000000
2013-09-01 01:01:58,0.09,0.85,0.00,24.00,28.25,30.44,5.87,29.75,1012.93,2046.98,3135.04,3093.60,3351.10,348.87,320.68,13.98,0000 0000 0000 0000 000000
2013-09-01 01:02:59,0.07,0.85,0.00,24.01,28.25,30.44,5.92,29.71,1012.91,2046.97,3135.01,3093.45,3351.03,350.13,321.80,13.98,0000 0000 0000 0000 000000
2013-09-01 01:03:59,0.04,0.85,0.00,24.01,28.25,30.45,5.86,30.13,1012.87,2046.97,3135.00,3093.35,3351.01,350.20,321.86,13.99,0000 0000 0000 0000 000000
2013-09-01 01:04:59,0.01,0.85,0.00,24.03,28.25,30.44,5.95,29.63,1012.83,2046.98,3135.00,3093.18,3351.00,349.98,321.62,14.00,0000 0000 0000 0000 000000
2013-09-01 01:05:59,0.05,0.85,0.00,24.06,28.25,30.46,6.06,29.58,1012.85,2046.98,3135.00,3093.08,3351.00,350.95,322.03,14.00,0000 0000 0000 0000 000000
2013-09-01 01:06:59,0.02,0.86,0.00,24.08,28.25,30.47,5.76,29.58,1012.88,2046.99,3134.99,3093.03,3350.97,348.08,319.91,14.01,0000 0000 0000 0000 000000
2013-09-01 01:08:00,0.02,0.86,0.00,24.08,28.25,30.46,5.96,29.63,1012.94,2046.97,3134.89,3093.02,3350.87,350.31,321.90,14.01,0000 0000 0000 0000 000000
2013-09-01 01:09:00,0.02,0.86,0.00,24.08,28.26,30.46,5.86,29.63,1012.93,2046.95,3134.58,3093.00,3350.49,349.64,321.29,14.02,0000 0000 0000 0000 000000
2013-09-01 01:10:00,0.09,0.86,0.00,24.08,28.27,30.47,5.98,29.75,1012.88,2046.94,3134.23,3093.00,3350.20,350.05,321.65,14.02,0000 0000 0000 0000 000000
2013-09-01 01:11:00,0.07,0.86,0.00,24.08,28.27,30.46,5.81,29.75,1012.90,2046.95,3134.15,3092.99,3350.11,350.09,321.71,14.03,0000 0000 0000 0000 000000
2013-09-01 01:12:01,0.01,0.86,0.00,24.09,28.27,30.46,6.01,29.50,1012.97,2046.97,3134.07,3092.98,3350.05,349.73,321.37,14.04,0000 0000 0000 0000 000000
2013-09-01 01:13:01,0.03,0.86,0.00,24.11,28.27,30.49,5.91,29.54,1013.03,2046.94,3134.03,3092.97,3350.02,349.56,321.22,14.04,0000 0000 0000 0000 000000
2013-09-01 01:14:01,-0.01,0.86,0.00,24.11,28.27,30.50,6.07,29.63,1013.03,2046.91,3134.00,3092.79,3350.00,350.20,321.81,14.05,0000 0000 0000 0000 000000
2013-09-01 01:15:01,0.01,0.86,0.00,24.12,28.27,30.51,6.12,29.67,1013.03,2046.87,3133.98,3092.66,3349.99,350.35,321.93,14.05,0000 0000 0000 0000 000000
2013-09-01 01:16:02,0.00,0.86,0.00,24.13,28.28,30.50,5.97,29.83,1013.10,2046.87,3133.96,3092.42,3349.96,350.30,321.87,14.06,0000 0000 0000 0000 000000
2013-09-01 01:17:02,0.08,0.86,0.00,24.15,28.29,30.47,5.98,29.50,1013.17,2046.85,3133.61,3092.21,3349.70,349.98,321.61,14.07,0000 0000 0000 0000 000000
2013-09-01 01:18:02,0.15,0.86,0.00,24.17,28.30,30.50,5.86,29.54,1013.18,2046.88,3133.30,3092.08,3349.41,350.05,321.65,14.07,0000 0000 0000 0000 000000
2013-09-01 01:19:02,0.11,0.86,0.00,24.18,28.30,30.50,6.00,29.54,1013.16,2046.88,3133.11,3092.03,3349.16,350.30,321.91,14.08,0000 0000 0000 0000 000000
2013-09-01 01:20:02,0.06,0.86,0.00,24.18,28.30,30.50,5.75,29.71,1013.16,2046.84,3133.04,3092.01,3349.06,348.61,320.30,14.08,0000 0000 0000 0000 000000
2013-09-01 01:21:03,-0.01,0.86,0.00,24.18,28.30,30.54,5.95,29.88,1013.10,2046.79,3133.01,3092.00,3349.02,350.48,322.01,14.09,0000 0000 0000 0000 000000
2013-09-01 01:22:03,-0.05,0.86,0.00,24.17,28.30,30.53,5.89,29.75,1013.08,2046.77,3133.00,3092.00,3349.00,349.87,321.54,14.09,0000 0000 0000 0000 000000
2013-09-01 01:23:03,0.00,0.86,0.00,24.19,28.30,30.52,5.79,29.58,1013.07,2046.75,3132.99,3092.00,3349.00,350.07,321.56,14.10,0000 0000 0000 0000 000000
2013-09-01 01:24:03,0.01,0.86,0.00,24.20,28.31,30.53,5.89,29.83,1013.06,2046.84,3132.99,3092.00,3348.98,348.61,320.26,14.11,0000 0000 0000 0000 000000
2013-09-01 01:25:03,0.04,0.86,0.00,24.19,28.32,30.54,5.95,29.75,1013.10,2046.84,3132.92,3092.00,3348.98,349.88,321.54,14.11,0000 0000 0000 0000 000000
2013-09-01 01:26:04,0.02,0.86,0.00,24.18,28.32,30.55,5.84,29.63,1013.14,2046.81,3132.76,3091.99,3348.95,349.46,321.08,14.12,0000 0000 0000 0000 000000
2013-09-01 01:27:04,0.01,0.86,0.00,24.20,28.32,30.56,5.93,29.83,1013.14,2046.65,3132.54,3091.88,3348.74,349.97,321.87,14.12,0000 0000 0000 0000 000000
2013-09-01 01:28:04,-0.01,0.86,0.00,24.22,28.32,30.54,6.05,29.79,1013.04,2046.50,3132.21,3091.59,3348.32,350.43,321.90,14.13,0000 0000 0000 0000 000000
2013-09-01 01:29:04,0.03,0.86,0.00,24.22,28.32,30.56,5.84,29.67,1013.09,2046.45,3132.07,3091.26,3348.13,349.20,320.73,14.14,0000 0000 0000 0000 000000
2013-09-01 01:30:05,0.07,0.86,0.00,24.24,28.34,30.58,5.87,29.67,1013.14,2046.41,3132.02,3091.09,3348.05,349.71,321.24,14.14,0000 0000 0000 0000 000000
2013-09-01 01:31:05,0.04,0.86,0.00,24.25,28.35,30.57,6.01,29.75,1013.11,2046.34,3131.97,3091.03,3348.01,349.61,321.16,14.15,0000 0000 0000 0000 000000
2013-09-01 01:32:05,-0.04,0.86,0.00,24.25,28.35,30.58,5.81,29.63,1013.08,2046.23,3131.86,3091.01,3347.98,349.36,320.73,14.15,0000 0000 0000 0000 000000
2013-09-01 01:33:05,-0.07,0.86,0.00,24.24,28.35,30.58,6.07,30.00,1013.07,2046.15,3131.47,3091.00,3347.88,350.42,321.87,14.16,0000 0000 0000 0000 000000
2013-09-01 01:34:05,0.01,0.86,0.00,24.25,28.35,30.58,5.99,30.13,1012.99,2046.09,3131.24,3091.00,3347.69,350.04,321.31,14.17,0000 0000 0000 0000 000000
2013-09-01 01:35:06,0.01,0.86,0.00,24.24,28.35,30.59,5.98,29.67,1013.12,2046.11,3131.09,3090.97,3347.34,350.53,321.69,14.17,0000 0000 0000 0000 000000
2013-09-01 01:36:06,0.09,0.86,0.00,24.24,28.36,30.61,5.93,30.08,1013.10,2046.06,3131.04,3090.91,3347.14,349.30,320.55,14.18,0000 0000 0000 0000 000000
2013-09-01 01:37:06,0.01,0.86,0.00,24.26,28.37,30.58,6.02,30.04,1013.16,2046.05,3131.00,3090.73,3347.05,349.48,321.02,14.18,0000 0000 0000 0000 000000
2013-09-01 01:38:07,0.05,0.86,0.00,24.26,28.37,30.60,5.87,29.67,1013.14,2046.04,3130.97,3090.42,3347.02,350.19,321.65,14.19,0000 0000 0000 0000 000000
2013-09-01 01:39:07,0.06,0.86,0.00,24.25,28.37,30.61,5.95,29.83,1013.08,2046.06,3130.95,3090.25,3347.00,350.38,321.76,14.19,0000 0000 0000 0000 000000
2013-09-01 01:40:07,0.08,0.86,0.00,24.28,28.37,30.61,5.90,29.75,1013.13,2046.06,3130.63,3090.11,3346.98,349.94,320.93,14.20,0000 0000 0000 0000 000000
2013-09-01 01:41:07,0.07,0.86,0.00,24.29,28.39,30.62,5.97,30.33,1013.11,2046.03,3130.32,3090.04,3346.85,350.48,321.90,14.21,0000 0000 0000 0000 000000
2013-09-01 01:42:07,0.05,0.86,0.00,24.28,28.40,30.63,5.95,30.00,1013.15,2046.03,3130.12,3090.01,3346.47,349.80,321.25,14.21,0000 0000 0000 0000 000000
2013-09-01 01:43:07,0.08,0.86,0.00,24.29,28.40,30.65,5.90,30.25,1013.14,2046.02,3130.04,3090.00,3346.21,350.61,322.02,14.22,0000 0000 0000 0000 000000
2013-09-01 01:44:08,0.03,0.86,0.00,24.26,28.40,30.64,5.96,30.13,1013.11,2046.00,3130.01,3090.00,3346.09,350.23,321.69,14.22,0000 0000 0000 0000 000000
2013-09-01 01:45:08,0.00,0.86,0.00,24.27,28.40,30.65,5.91,29.92,1013.15,2046.00,3129.98,3089.99,3346.03,349.37,320.90,14.23,0000 0000 0000 0000 000000
2013-09-01 01:46:08,0.01,0.86,0.00,24.29,28.40,30.63,5.98,30.13,1013.18,2046.00,3129.83,3089.95,3346.01,350.17,321.63,14.24,0000 0000 0000 0000 000000
2013-09-01 01:47:08,0.03,0.86,0.00,24.29,28.41,30.64,6.05,29.71,1013.20,2046.00,3129.55,3089.86,3345.98,351.09,322.47,14.24,0000 0000 0000 0000 000000
2013-09-01 01:48:09,0.06,0.86,0.00,24.29,28.42,30.65,5.83,29.83,1013.20,2046.02,3129.31,3089.74,3345.96,348.63,320.22,14.25,0000 0000 0000 0000 000000
2013-09-01 01:49:09,0.08,0.86,0.00,24.28,28.42,30.66,6.06,29.88,1013.16,2046.02,3129.12,3089.48,3345.78,350.81,322.21,14.25,0000 0000 0000 0000 000000
2013-09-01 01:50:09,0.10,0.86,0.00,24.27,28.42,30.66,5.93,29.63,1013.16,2046.01,3129.04,3089.19,3345.36,350.70,321.89,14.26,0000 0000 0000 0000 000000
2013-09-01 01:51:09,0.13,0.87,0.00,24.27,28.42,30.67,5.94,29.71,1013.16,2046.00,3129.01,3089.07,3345.15,350.52,321.67,14.26,0000 0000 0000 0000 000000
2013-09-01 01:52:10,0.05,0.87,0.00,24.27,28.43,30.68,5.98,29.58,1013.15,2046.00,3128.97,3089.02,3345.06,349.92,321.59,14.27,0000 0000 0000 0000 000000
2013-09-01 01:53:10,0.02,0.87,0.00,24.26,28.45,30.70,5.83,29.75,1013.12,2046.00,3128.86,3089.00,3345.02,349.56,321.35,14.28,0000 0000 0000 0000 000000
2013-09-01 01:54:10,0.03,0.87,0.00,24.27,28.45,30.72,6.00,29.67,1013.17,2046.00,3128.45,3089.00,3345.00,350.58,321.61,14.28,0000 0000 0000 0000 000000
2013-09-01 01:55:10,0.06,0.87,0.00,24.28,28.45,30.70,5.98,29.71,1013.20,2046.00,3128.18,3088.99,3344.97,350.55,322.00,14.29,0000 0000 0000 0000 000000
2013-09-01 01:56:10,0.04,0.87,0.00,24.29,28.45,30.70,5.78,29.92,1013.20,2046.00,3128.07,3088.98,3344.89,350.35,322.01,14.29,0000 0000 0000 0000 000000
2013-09-01 01:57:11,0.03,0.87,0.00,24.30,28.45,30.72,6.06,29.58,1013.20,2046.00,3128.02,3088.93,3344.51,351.06,322.44,14.30,0000 0000 0000 0000 000000
2013-09-01 01:58:11,0.07,0.87,0.00,24.28,28.46,30.71,5.96,29.71,1013.20,2046.00,3127.99,3088.79,3344.20,349.96,321.45,14.31,0000 0000 0000 0000 000000
2013-09-01 01:59:11,0.08,0.87,0.00,24.28,28.47,30.70,5.98,29.75,1013.20,2046.00,3127.96,3088.64,3344.08,350.50,321.95,14.31,0000 0000 0000 0000 000000
2013-09-01 02:00:11,0.05,0.87,0.00,24.29,28.47,30.71,5.85,29.67,1013.20,2046.00,3127.82,3088.32,3344.03,349.75,320.93,14.32,0000 0000 0000 0000 000000
2013-09-01 02:01:12,0.12,0.87,0.00,24.29,28.47,30.71,5.98,29.79,1013.20,2046.00,3127.58,3088.19,3344.00,350.58,322.01,14.32,0000 0000 0000 0000 000000
2013-09-01 02:02:12,0.05,0.87,0.00,24.29,28.47,30.73,5.86,29.67,1013.20,2046.00,3127.28,3088.07,3343.98,349.79,321.19,14.33,0000 0000 0000 0000 000000
2013-09-01 02:03:12,0.07,0.87,0.00,24.30,28.48,30.73,5.93,29.63,1013.20,2046.00,3127.11,3088.02,3343.95,349.71,321.19,14.33,0000 0000 0000 0000 000000
2013-09-01 02:04:13,0.04,0.87,0.00,24.29,28.49,30.74,5.87,29.75,1013.20,2046.00,3127.04,3088.00,3343.67,350.48,321.91,14.34,0000 0000 0000 0000 000000
2013-09-01 02:05:13,0.05,0.87,0.00,24.28,28.50,30.72,5.93,29.50,1013.21,2046.00,3126.98,3088.00,3343.34,349.72,321.23,14.35,0000 0000 0000 0000 000000
2013-09-01 02:06:13,0.05,0.87,0.00,24.28,28.50,30.72,6.10,29.58,1013.20,2046.00,3126.84,3088.00,3343.14,350.33,321.79,14.35,0000 0000 0000 0000 000000
2013-09-01 02:07:13,0.05,0.87,0.00,24.29,28.50,30.75,5.82,29.71,1013.20,2046.00,3126.61,3087.94,3343.05,350.39,321.84,14.36,0000 0000 0000 0000 000000
2013-09-01 02:08:14,0.05,0.87,0.00,24.29,28.50,30.74,5.99,30.04,1013.20,2046.00,3126.42,3087.84,3343.02,349.57,321.25,14.36,0000 0000 0000 0000 000000
2013-09-01 02:09:14,0.06,0.87,0.00,24.30,28.50,30.73,5.99,29.75,1013.20,2045.98,3126.17,3087.50,3343.00,349.58,321.08,14.37,0000 0000 0000 0000 000000
2013-09-01 02:10:14,0.09,0.87,0.00,24.31,28.52,30.75,5.73,29.79,1013.20,2045.98,3126.07,3087.25,3342.96,348.72,320.63,14.38,0000 0000 0000 0000 000000
2013-09-01 02:11:14,0.07,0.87,0.00,24.31,28.52,30.74,5.99,29.75,1013.20,2045.97,3126.01,3087.10,3342.71,351.15,321.89,14.38,0000 0000 0000 0000 000000
2013-09-01 02:12:15,0.06,0.87,0.00,24.30,28.52,30.76,6.14,29.96,1013.20,2045.96,3125.94,3087.03,3342.36,351.10,321.88,14.39,0000 0000 0000 0000 000000
2013-09-01 02:13:15,0.07,0.87,0.00,24.29,28.52,30.75,5.80,29.58,1013.21,2045.97,3125.53,3087.01,3342.14,349.75,321.20,14.39,0000 0000 0000 0000 000000
2013-09-01 02:14:15,0.07,0.87,0.00,24.30,28.52,30.75,5.92,29.58,1013.21,2045.94,3125.23,3087.00,3342.05,349.99,321.64,14.40,0000 0000 0000 0000 000000
2013-09-01 02:15:16,0.03,0.87,0.00,24.30,28.53,30.76,5.95,29.96,1013.20,2045.98,3125.22,3087.00,3342.03,349.19,320.30,14.41,0000 0000 0000 0000 000000
2013-09-01 02:16:16,0.02,0.87,0.00,24.29,28.54,30.76,5.91,29.67,1013.20,2045.99,3125.12,3086.99,3342.01,349.81,321.30,14.41,0000 0000 0000 0000 000000
2013-09-01 02:17:16,0.02,0.87,0.00,24.31,28.55,30.77,5.89,29.63,1013.20,2045.96,3125.04,3086.91,3341.97,350.34,321.42,14.42,0000 0000 0000 0000 000000
2013-09-01 02:18:17,0.01,0.87,0.00,24.30,28.55,30.78,5.89,29.92,1013.23,2045.96,3125.00,3086.77,3341.92,349.93,321.67,14.42,0000 0000 0000 0000 000000
2013-09-01 02:19:17,0.06,0.87,0.00,24.31,28.55,30.79,5.88,30.00,1013.20,2045.96,3124.96,3086.52,3341.76,349.52,321.01,14.43,0000 0000 0000 0000 000000
2013-09-01 02:20:17,0.09,0.88,0.00,24.30,28.55,30.79,5.95,30.04,1013.21,2045.96,3124.93,3086.30,3341.57,349.81,321.63,14.43,0000 0000 0000 0000 000000
2013-09-01 02:21:17,0.08,0.88,0.00,24.30,28.55,30.78,5.98,30.00,1013.20,2045.95,3124.70,3086.15,3341.30,350.09,321.49,14.44,0000 0000 0000 0000 000000
2013-09-01 02:22:18,0.09,0.88,0.00,24.29,28.55,30.78,5.88,29.63,1013.20,2045.95,3124.36,3086.05,3341.13,350.61,322.03,14.45,0000 0000 0000 0000 000000
2013-09-01 02:23:18,0.07,0.88,0.00,24.30,28.56,30.79,5.88,29.83,1013.20,2045.93,3124.13,3086.02,3341.05,348.98,320.72,14.45,0000 0000 0000 0000 000000
2013-09-01 02:24:18,0.04,0.88,0.00,24.31,28.57,30.80,5.94,29.71,1013.20,2045.89,3124.04,3086.00,3341.01,349.77,321.24,14.46,0000 0000 0000 0000 000000
2013-09-01 02:25:19,0.00,0.88,0.00,24.30,28.57,30.79,5.92,29.71,1013.20,2045.88,3124.00,3086.00,3340.96,349.59,320.88,14.46,0000 0000 0000 0000 000000
2013-09-01 02:26:19,0.02,0.88,0.00,24.30,28.57,30.79,5.98,29.88,1013.20,2045.90,3123.89,3085.99,3340.75,350.18,321.42,14.47,0000 0000 0000 0000 000000
2013-09-01 02:27:19,0.01,0.88,0.00,24.30,28.57,30.80,5.81,29.75,1013.20,2045.84,3123.67,3085.96,3340.46,349.03,320.92,14.48,0000 0000 0000 0000 000000
2013-09-01 02:28:20,0.04,0.88,0.00,24.32,28.57,30.81,5.97,29.79,1013.20,2045.75,3123.35,3085.80,3340.18,350.77,321.99,14.48,0000 0000 0000 0000 000000
2013-09-01 02:29:20,0.07,0.88,0.00,24.30,28.58,30.80,5.92,29.63,1013.20,2045.70,3123.16,3085.54,3340.07,350.38,321.81,14.49,0000 0000 0000 0000 000000
2013-09-01 02:30:20,0.03,0.88,0.00,24.30,28.59,30.79,5.92,29.83,1013.20,2045.62,3123.06,3085.38,3340.02,349.35,320.58,14.49,0000 0000 0000 0000 000000
2013-09-01 02:31:21,0.01,0.88,0.00,24.30,28.60,30.79,6.04,29.71,1013.20,2045.58,3123.02,3085.23,3340.00,350.81,322.39,14.50,0000 0000 0000 0000 000000
2013-09-01 02:32:21,-0.01,0.88,0.00,24.30,28.60,30.80,6.02,29.83,1013.20,2045.45,3123.00,3085.10,3340.00,349.97,321.45,14.50,0000 0000 0000 0000 000000
2013-09-01 02:33:21,-0.08,0.88,0.00,24.31,28.60,30.82,5.92,29.67,1013.21,2045.36,3122.94,3085.03,3339.96,349.93,321.36,14.51,0000 0000 0000 0000 000000
2013-09-01 02:34:21,-0.02,0.88,0.00,24.32,28.60,30.81,5.99,29.79,1013.22,2045.39,3122.90,3085.01,3339.90,350.70,322.01,14.52,0000 0000 0000 0000 000000
2013-09-01 02:35:22,0.04,0.88,0.00,24.32,28.60,30.82,5.94,29.75,1013.21,2045.31,3122.60,3085.00,3339.61,350.45,321.86,14.52,0000 0000 0000 0000 000000
2013-09-01 02:36:22,0.02,0.88,0.00,24.31,28.60,30.82,5.91,29.75,1013.22,2045.27,3122.31,3085.00,3339.34,350.14,321.92,14.53,0000 0000 0000 0000 000000